Weather reports worldwide

Advertisment
Hoyerswerda, Germany (10495): temperature & dewpoint: 16.06.2018 20:00:00 - 22.06.2018 20:00:00 (CEST)Hoyerswerda, Germany (10495): temperature 5cm & temperature -5cm: 16.06.2018 20:00:00 - 22.06.2018 20:00:00 (CEST)Hoyerswerda, Germany (10495): temperature -20cm & temperature -100cm: 16.06.2018 20:00:00 - 22.06.2018 20:00:00 (CEST)Hoyerswerda, Germany (10495): wind speed & gusts: 16.06.2018 20:00:00 - 22.06.2018 20:00:00 (CEST)Hoyerswerda, Germany (10495): wind direction: 16.06.2018 20:00:00 - 22.06.2018 20:00:00 (CEST)Hoyerswerda, Germany (10495): reduced air pressure: 16.06.2018 20:00:00 - 22.06.2018 20:00:00 (CEST)Hoyerswerda, Germany (10495): visibility: 16.06.2018 20:00:00 - 22.06.2018 20:00:00 (CEST)Hoyerswerda, Germany (10495): sunshine duration: 16.06.2018 20:00:00 - 22.06.2018 20:00:00 (CEST)Hoyerswerda, Germany (10495): precipitation: 16.06.2018 20:00:00 - 22.06.2018 20:00:00 (CEST)
Date & Time tt [°C] td [°C] tt 5cm [°C] tt -5cm [°C] tt -20cm [°C] tt -100cm [°C] ff [km/h] ff [kn] fx [km/h] fx [kn] dd ppp [hPa] vv [km] sd [min] rr [mm]
22.06.2018 20:00:00 15,2 8,5 14,6 18,4 20,0 18,9 18 10 27 15 WSW 1018,6 42 60 0,0
22.06.2018 19:00:00 15,2 8,7 15,2 19,5 20,1 18,9 13 7 22 12 W 1018,3 60 51 0,0
22.06.2018 18:00:00 12,8 9,6 11,8 18,5 20,2 18,9 14 8 31 17 WNW 1018,9 70 10 0,8
22.06.2018 17:00:00 14,6 8,4 17,1 21,0 20,2 18,9 10 5 36 19 WNW 1018,7 35 26 0,8
22.06.2018 16:00:00 14,2 8,6 16,2 20,6 20,2 19,0 22 12 38 21 WNW 1018,6 32 15 0,0
22.06.2018 15:00:00 11,1 9,0 11,5 20,3 20,2 19,0 14 8 48 26 WNW 1018,7 46 3 0,0
22.06.2018 14:00:00 13,5 6,9 15,1 23,2 19,8 19,0 32 18 50 27 W 1018,1 55 33 0,0
22.06.2018 13:00:00 13,2 10,0 14,9 21,8 19,3 19,0 16 9 46 25 WSW 1017,9 42 25 0,4
22.06.2018 12:00:00 13,6 7,7 19,1 22,1 18,8 19,0 26 14 41 22 WSW 1018,1 23 49 0,0
22.06.2018 11:00:00 11,5 8,0 13,2 16,9 18,7 18,9 20 11 35 19 WSW 1018,3 20 4 0,1
22.06.2018 10:00:00 12,4 6,2 13,7 17,3 18,6 18,9 26 14 43 23 W 1017,8 43 0 0,0
22.06.2018 09:00:00 12,0 6,4 13,2 16,1 18,7 18,9 24 13 42 23 W 1017,6 35 0 0,0
22.06.2018 08:00:00 11,4 6,2 11,9 15,7 18,8 18,9 23 13 42 23 W 1017,7 56 14 0,0
22.06.2018 07:00:00 11,1 6,1 12,7 14,1 19,0 18,9 19 10 31 17 WSW 1017,5 31 50 0,0
22.06.2018 06:00:00 9,6 6,1 9,6 13,2 19,4 18,9 16 9 27 15 W 1017,8 24 19 0,0
22.06.2018 05:00:00 9,6 6,0 8,6 13,5 19,9 18,9 16 9 24 13 WSW 1017,9 64 0 0,0
22.06.2018 04:00:00 9,1 5,9 6,8 13,7 20,4 18,9 11 6 21 11 W 1018,2 59 0 0,0
22.06.2018 03:00:00 9,8 6,0 7,7 14,4 20,9 18,8 14 7 21 12 W 1017,9 70 0 0,0
22.06.2018 02:00:00 11,1 5,7 9,2 15,3 21,5 18,8 16 9 35 19 W 1017,7 70 0 0,0
22.06.2018 01:00:00 11,7 5,5 10,0 16,1 22,1 18,8 18 10 35 19 W 1017,4 70 0 0,0
22.06.2018 00:00:00 12,8 5,2 11,0 17,0 22,7 18,8 21 12 31 17 W 1017,2 70 0 0,0
21.06.2018 23:00:00 13,8 4,4 12,2 18,2 23,3 18,8 24 13 45 24 WNW 1017,0 70 0 0,0
21.06.2018 22:00:00 14,8 4,0 13,4 19,6 23,9 18,8 25 13 50 27 WNW 1016,6 70 2 0,0
21.06.2018 21:00:00 16,0 4,2 14,9 21,2 24,5 18,8 24 13 46 25 WNW 1015,6 60 49 0,0
21.06.2018 20:00:00 16,2 6,7 15,7 22,5 25,1 18,8 27 15 45 24 WNW 1014,7 29 51 0,0
21.06.2018 19:00:00 15,9 7,9 15,8 23,4 25,7 18,7 28 15 43 23 WNW 1014,8 43 18 0,0
21.06.2018 18:00:00 15,1 13,4 16,2 24,7 26,2 18,7 16 9 44 24 W 1014,3 41 0 0,3
21.06.2018 17:00:00 16,7 9,5 18,0 28,0 26,5 18,7 36 19 69 37 NW 1013,9 40 10 0,0
21.06.2018 16:00:00 21,1 9,5 23,9 31,2 26,5 18,7 50 27 74 40 WNW 1012,0 8 58 0,0
21.06.2018 15:00:00 23,6 12,8 27,0 32,0 26,2 18,7 51 28 71 38 NW 1009,1 13 26 0,0
21.06.2018 14:00:00 29,4 13,3 32,3 33,5 25,7 18,7 40 22 64 34 W 1007,0 22 36 0,0
21.06.2018 13:00:00 29,7 13,4 32,9 33,6 25,1 18,7 42 23 61 33 WSW 1007,1 19 41 0,0
21.06.2018 12:00:00 29,8 13,3 35,2 33,3 24,2 18,7 28 15 44 24 SW 1007,9 33 46 0,0
21.06.2018 11:00:00 28,4 13,3 33,5 32,5 23,3 18,6 21 11 36 19 WSW 1008,9 22 59 0,0
21.06.2018 10:00:00 26,9 15,6 31,0 29,8 22,5 18,6 12 7 21 12 S 1010,2 21 60 0,0
21.06.2018 09:00:00 25,2 16,4 29,3 26,2 22,0 18,6 8 4 16 9 SSW 1011,2 23 58 0,0
21.06.2018 08:00:00 22,9 15,9 26,3 23,3 21,9 18,6 6 3 10 6 WSW 1012,2 25 60 0,0
21.06.2018 07:00:00 19,7 15,6 21,2 20,4 22,1 18,6 6 4 10 5 S 1012,6 21 51 0,0
21.06.2018 06:00:00 16,2 14,8 15,1 18,9 22,4 18,5 0 0 13 7 N 1013,5 14 4 0,0
21.06.2018 05:00:00 15,3 14,4 12,2 19,2 22,9 18,5 3 1 4 2 SSW 1013,7 14 0 0,0
21.06.2018 04:00:00 15,9 15,1 13,1 19,9 23,4 18,5 2 1 7 4 W 1014,2 15 0 0,0
21.06.2018 03:00:00 16,2 14,9 13,7 20,7 23,9 18,5 0 0 4 2 N 1014,6 17 0 0,0
21.06.2018 02:00:00 18,9 14,9 15,0 21,8 24,4 18,5 3 2 12 7 SW 1014,8 28 0 0,0
21.06.2018 01:00:00 21,7 15,4 19,9 22,8 24,9 18,5 9 5 17 9 S 1015,1 35 0 0,0
21.06.2018 00:00:00 22,9 15,5 21,6 23,7 25,4 18,5 9 5 14 8 S 1015,5 33 0 0,0
20.06.2018 23:00:00 22,3 16,6 18,3 24,9 26,0 18,5 6 4 10 5 SSE 1015,8 28 0 0,0
20.06.2018 22:00:00 22,1 16,8 18,9 26,7 26,4 18,5 2 1 6 3 SSE 1016,1 22 0 0,0
20.06.2018 21:00:00 26,6 15,4 22,9 29,0 26,7 18,5 5 3 8 4 SE 1016,1 43 55 0,0
20.06.2018 20:00:00 27,6 14,6 26,7 30,9 26,9 18,5 7 4 12 7 N 1016,2 48 51 0,0
20.06.2018 19:00:00 28,9 14,6 30,0 32,3 26,8 18,5 6 3 13 7 S 1016,7 38 37 0,0
20.06.2018 18:00:00 28,7 14,0 30,0 33,7 26,7 18,5 9 5 14 8 SSW 1017,3 36 41 0,0
20.06.2018 17:00:00 28,5 13,9 31,7 34,6 26,3 18,5 8 4 15 8 N 1018,1 46 37 0,0
20.06.2018 16:00:00 27,4 13,3 31,0 36,0 25,5 18,5 5 3 17 9 WNW 1018,9 55 36 0,0
20.06.2018 15:00:00 27,5 13,6 35,7 36,7 24,5 18,5 13 7 22 12 WNW 1019,6 27 58 0,0
20.06.2018 14:00:00 26,1 14,0 30,7 33,6 23,6 18,5 8 4 22 12 W 1020,4 43 20 0,0
20.06.2018 13:00:00 25,8 13,9 31,2 35,0 22,3 18,5 11 6 23 12 SW 1021,3 42 60 0,0
20.06.2018 12:00:00 24,8 14,6 30,2 31,6 21,1 18,5 8 5 18 10 S 1022,1 28 59 0,0
20.06.2018 11:00:00 23,6 15,7 28,9 26,8 20,4 18,5 8 4 18 10 S 1022,7 26 18 0,0
20.06.2018 10:00:00 21,5 15,6 24,1 23,3 20,0 18,5 8 4 16 8 SE 1023,2 33 0 0,0
20.06.2018 09:00:00 20,2 15,2 21,9 21,5 19,7 18,5 8 4 13 7 SE 1023,5 31 0 0,0
20.06.2018 08:00:00 19,7 15,0 20,7 20,3 19,5 18,5 3 2 6 3 SE 1023,7 29 1 0,0
20.06.2018 07:00:00 18,5 14,6 20,5 18,5 19,6 18,5 2 1 4 2 NNW 1023,6 24 58 0,0
20.06.2018 06:00:00 15,2 14,0 14,9 16,5 19,8 18,5 4 2 5 3 W 1023,9 14 15 0,0
20.06.2018 05:00:00 14,2 14,2 11,6 16,4 20,2 18,5 3 2 5 3 WSW 1023,7 16 0 0,0
20.06.2018 04:00:00 14,5 14,2 11,4 17,3 20,5 18,5 5 3 6 4 WNW 1023,6 16 0 0,0
20.06.2018 03:00:00 16,7 14,9 15,4 18,1 20,7 18,5 3 2 7 4 WNW 1023,3 31 0 0,0
20.06.2018 02:00:00 15,9 14,2 15,0 17,7 21,1 18,5 4 2 8 4 WSW 1023,2 31 0 0,0
20.06.2018 01:00:00 15,1 14,2 12,3 18,1 21,6 18,5 2 1 4 2 WSW 1023,2 29 0 0,0
20.06.2018 00:00:00 16,0 14,4 12,4 19,0 22,1 18,5 3 2 6 4 SW 1022,9 42 0 0,0
19.06.2018 23:00:00 17,0 14,1 13,2 20,3 22,5 18,5 5 3 9 5 WSW 1022,7 52 0 0,0
19.06.2018 22:00:00 19,4 14,5 16,1 22,1 22,8 18,5 8 5 17 9 W 1022,2 70 0 0,0
19.06.2018 21:00:00 22,4 13,6 21,2 23,4 23,0 18,5 10 6 22 12 WNW 1021,5 70 0 0,0
19.06.2018 20:00:00 23,4 12,9 23,1 24,4 23,2 18,5 11 6 27 15 NW 1021,3 63 0 0,0
19.06.2018 19:00:00 24,1 12,6 24,3 25,2 23,3 18,5 16 9 29 16 W 1021,3 67 0 0,0
19.06.2018 18:00:00 24,4 12,4 24,7 26,6 23,2 18,5 16 9 29 16 W 1021,1 55 0 0,0
19.06.2018 17:00:00 25,2 13,0 27,3 28,3 22,9 18,5 14 8 27 14 W 1020,9 45 9 0,0
19.06.2018 16:00:00 25,2 13,5 28,2 28,2 22,5 18,5 15 8 30 16 WSW 1021,1 41 21 0,0
19.06.2018 15:00:00 23,6 13,3 25,7 28,3 22,1 18,5 16 9 29 16 WSW 1021,5 28 3 0,0
19.06.2018 14:00:00 23,3 14,0 26,1 27,9 21,5 18,5 18 10 30 16 W 1021,4 29 16 0,0
19.06.2018 13:00:00 22,4 13,8 24,5 26,3 20,9 18,5 22 12 30 16 W 1021,5 26 5 0,0
19.06.2018 12:00:00 22,6 14,4 24,4 28,0 20,1 18,5 13 7 23 12 WSW 1021,3 37 47 0,0
19.06.2018 11:00:00 21,5 14,8 24,4 22,6 19,7 18,5 14 8 27 14 WSW 1021,5 35 4 0,0
19.06.2018 10:00:00 22,0 14,7 26,1 22,6 19,2 18,5 15 8 24 13 W 1021,5 34 23 0,0
19.06.2018 09:00:00 20,1 13,7 21,6 19,7 19,0 18,5 17 9 29 16 W 1021,4 42 0 0,0
19.06.2018 08:00:00 19,1 12,9 19,7 18,3 18,9 18,5 15 8 27 15 WSW 1021,0 35 13 0,0
19.06.2018 07:00:00 18,2 12,9 17,8 16,7 19,0 18,5 13 7 22 12 WSW 1020,6 51 14 0,0
19.06.2018 06:00:00 16,5 12,2 16,3 15,3 19,2 18,5 5 3 10 5 S 1020,6 37 31 0,0
19.06.2018 05:00:00 15,6 12,2 12,0 15,0 19,6 18,5 6 3 8 5 S 1020,6 39 0 0,0
19.06.2018 04:00:00 15,0 12,2 11,2 15,7 20,0 18,5 5 3 9 5 S 1020,6 41 0 0,0
19.06.2018 03:00:00 16,3 12,7 12,9 16,7 20,3 18,5 6 4 11 6 S 1020,4 35 0 0,0
19.06.2018 02:00:00 17,2 12,7 16,1 17,3 20,6 18,5 5 3 12 6 S 1020,5 33 0 0,0
19.06.2018 01:00:00 17,1 12,7 16,4 17,3 21,0 18,5 8 4 11 6 S 1020,7 38 0 0,0
19.06.2018 00:00:00 16,2 12,5 12,2 17,6 21,4 18,5 5 3 9 5 S 1020,7 33 0 0,0
18.06.2018 23:00:00 18,1 12,2 14,8 18,8 21,8 18,5 6 3 9 5 S 1020,5 39 0 0,0
18.06.2018 22:00:00 19,3 12,0 15,0 19,4 22,3 18,5 6 3 8 5 S 1020,0 44 0 0,0
18.06.2018 21:00:00 21,0 11,1 17,5 21,3 22,6 18,5 5 3 12 6 SW 1019,5 50 16 0,0
18.06.2018 20:00:00 21,8 11,5 21,2 22,2 22,9 18,5 7 4 22 12 W 1019,3 52 0 0,0
18.06.2018 19:00:00 22,0 10,3 21,6 23,6 23,0 18,5 17 9 29 16 W 1019,5 47 48 0,0
18.06.2018 18:00:00 23,4 10,2 26,2 24,5 23,1 18,5 11 6 26 14 WNW 1019,4 50 19 0,0
18.06.2018 17:00:00 23,2 9,9 26,0 26,1 22,9 18,5 18 10 32 18 W 1019,7 32 30 0,0
18.06.2018 16:00:00 22,5 10,9 25,4 25,9 22,7 18,5 10 5 29 16 SW 1019,7 25 16 0,0
18.06.2018 15:00:00 21,7 11,5 24,0 27,0 22,3 18,5 13 7 27 14 W 1019,9 29 41 0,0
18.06.2018 14:00:00 21,2 11,7 24,1 25,3 22,1 18,5 17 9 30 16 WNW 1020,6 34 5 0,0
18.06.2018 13:00:00 20,7 11,1 23,5 26,5 21,7 18,5 18 10 29 16 W 1020,6 23 32 0,0
18.06.2018 12:00:00 21,4 11,7 24,4 25,5 21,2 18,5 18 10 27 15 WNW 1020,6 37 33 0,0
18.06.2018 11:00:00 21,3 11,6 25,0 25,5 20,6 18,5 17 9 28 15 W 1020,5 31 58 0,0
18.06.2018 10:00:00 19,6 10,9 22,3 23,9 20,1 18,5 9 5 21 12 NW 1020,2 35 47 0,0
18.06.2018 09:00:00 18,9 11,2 21,1 21,9 19,8 18,5 11 6 19 11 W 1020,0 36 56 0,0
18.06.2018 08:00:00 17,9 11,9 20,1 20,0 19,7 18,5 12 6 18 10 W 1019,4 24 60 0,0
18.06.2018 07:00:00 16,6 12,8 17,7 17,9 19,9 18,5 5 3 11 6 WSW 1019,2 21 59 0,0
18.06.2018 06:00:00 14,7 13,0 13,3 16,7 20,2 18,5 8 5 13 7 W 1019,5 16 1 0,0
18.06.2018 05:00:00 15,4 14,8 14,2 17,1 20,5 18,5 3 2 7 4 W 1018,8 9 0 0,0
18.06.2018 04:00:00 15,7 15,3 13,5 17,7 20,7 18,5 6 3 10 5 W 1018,2 8 0 0,0
18.06.2018 03:00:00 16,3 16,0 15,6 18,0 21,0 18,4 5 3 6 4 W 1018,0 6 0 0,0
18.06.2018 02:00:00 16,1 16,1 15,0 18,0 21,4 18,4 2 1 7 4 WNW 1018,0 4,1 0 0,0
18.06.2018 01:00:00 15,9 15,9 14,7 18,1 21,8 18,4 4 2 5 3 W 1018,1 3,0 0 0,0
18.06.2018 00:00:00 16,1 16,1 13,7 18,6 22,3 18,4 4 2 6 4 WSW 1017,9 2,7 0 0,0
17.06.2018 23:00:00 16,8 16,4 15,2 19,5 22,8 18,4 0 0 17 9 N 1017,4 6 0 0,0
17.06.2018 22:00:00 18,4 15,5 17,4 20,2 23,3 18,4 3 2 16 9 NNW 1017,0 25 0 0,0
17.06.2018 21:00:00 18,4 16,3 17,9 21,0 23,9 18,4 10 5 25 14 NW 1016,3 16 0 0,0
17.06.2018 20:00:00 19,3 16,8 18,9 23,2 24,4 18,4 18 10 28 15 W 1016,1 15 0 0,0
17.06.2018 19:00:00 20,8 19,2 21,0 25,2 24,8 18,4 0 0 16 9 N 1015,1 14 3 0,0
17.06.2018 18:00:00 21,6 18,8 21,0 25,7 25,1 18,4 5 3 53 28 NW 1014,6 19 1 10,7
17.06.2018 17:00:00 24,9 13,5 26,7 30,7 25,0 18,4 27 14 48 26 NW 1013,7 34 24 0,0
17.06.2018 16:00:00 27,5 10,8 29,0 31,1 24,7 18,4 18 10 30 16 W 1013,1 43 10 0,0
17.06.2018 15:00:00 28,4 11,5 34,2 32,5 24,2 18,4 12 6 34 18 WNW 1013,1 36 41 0,0
17.06.2018 14:00:00 28,9 11,3 35,2 30,3 23,8 18,4 17 9 27 15 W 1013,4 33 18 0,0
17.06.2018 13:00:00 26,2 11,7 27,6 31,1 23,1 18,3 16 9 23 13 W 1013,9 33 9 0,0
17.06.2018 12:00:00 27,2 11,3 32,2 33,1 22,1 18,3 13 7 22 12 W 1014,0 27 53 0,0
17.06.2018 11:00:00 26,1 11,6 31,9 29,6 21,3 18,3 8 4 23 12 W 1014,5 29 60 0,0
17.06.2018 10:00:00 25,0 12,8 29,7 24,8 20,9 18,3 7 4 14 8 SW 1014,5 29 35 0,0
17.06.2018 09:00:00 22,0 13,7 24,7 22,0 20,8 18,3 5 3 8 4 SW 1014,5 27 7 0,0
17.06.2018 08:00:00 18,9 13,1 20,1 20,2 20,8 18,3 3 2 6 4 S 1014,6 22 0 0,0
17.06.2018 07:00:00 17,5 13,1 18,0 19,1 21,0 18,3 3 1 10 5 ESE 1014,4 19 13 0,0
17.06.2018 06:00:00 15,6 12,5 15,0 18,3 21,3 18,2 7 4 11 6 ESE 1014,2 15 0 0,0
17.06.2018 05:00:00 16,1 12,9 15,2 18,9 21,6 18,2 8 4 11 6 SE 1014,3 16 0 0,0
17.06.2018 04:00:00 16,3 13,0 15,6 19,0 21,9 18,2 6 4 9 5 SE 1014,4 15 0 0,0
17.06.2018 03:00:00 16,3 13,1 13,4 19,2 22,3 18,2 6 3 9 5 E 1014,6 16 0 0,0
17.06.2018 02:00:00 16,9 13,0 12,5 19,9 22,8 18,2 6 3 8 4 ESE 1014,8 18 0 0,0
17.06.2018 01:00:00 18,2 13,5 15,1 21,0 23,2 18,2 5 3 9 5 SE 1015,0 20 0 0,0
17.06.2018 00:00:00 19,1 13,3 15,5 21,5 23,7 18,2 5 3 8 4 SE 1014,8 17 0 0,0
16.06.2018 23:00:00 17,8 12,4 13,8 22,4 24,2 18,2 5 3 8 5 ESE 1014,8 22 0 0,0
16.06.2018 22:00:00 21,1 11,9 15,8 24,2 24,7 18,2 6 3 8 4 ESE 1014,6 29 0 0,0
16.06.2018 21:00:00 22,6 11,7 19,6 26,2 25,0 18,2 4 2 8 5 SE 1014,2 33 0 0,0
16.06.2018 20:00:00 24,6 11,4 23,9 28,3 25,2 18,2 6 3 13 7 SE 1014,0 38 1 0,0

tt = temperature
td = dewpoint
tt 5cm = temperature 5cm
tt -5cm = temperature -5cm
tt -20cm = temperature -20cm
tt -100cm = temperature -100cm
ff = wind speed
fx = gusts
dd = wind direction
ppp = reduced air pressure
vv = visibility
sd = sunshine duration
rr = precipitation

Next stations